This is the latest recevied weather packets stored in our database for station/object OE6CBX-1. If no packets are shown the sender has not sent any weather packets the latest 10 day(s).
| Time | Temp. | Humidity | Pressure | Rain* | Wind** | Luminosity | Snow |
|---|---|---|---|---|---|---|---|
| 1777319993 | 18.89° C | 33% | 981.5 hPa | - | - | - | - |
| 1777319093 | 18.89° C | 32% | 981.4 hPa | - | - | - | - |
| 1777318193 | 18.89° C | 32% | 981.3 hPa | - | - | - | - |
| 1777317293 | 19.44° C | 31% | 981.3 hPa | - | - | - | - |
| 1777316393 | 19.44° C | 30% | 981.2 hPa | - | - | - | - |
| 1777315493 | 20° C | 28% | 981 hPa | - | - | - | - |
| 1777314593 | 20° C | 27% | 980.9 hPa | - | - | - | - |
| 1777313693 | 20.56° C | 27% | 980.7 hPa | - | - | - | - |
| 1777312793 | 20.56° C | 26% | 980.5 hPa | - | - | - | - |
| 1777311893 | 20.56° C | 26% | 980.4 hPa | - | - | - | - |
| 1777310993 | 20.56° C | 26% | 980.3 hPa | - | - | - | - |
| 1777310093 | 20.56° C | 26% | 980.2 hPa | - | - | - | - |
| 1777309193 | 21.11° C | 26% | 980.2 hPa | - | - | - | - |
| 1777308293 | 21.11° C | 26% | 980.1 hPa | - | - | - | - |
| 1777307393 | 21.67° C | 24% | 980.1 hPa | - | - | - | - |
| 1777306492 | 21.67° C | 24% | 980.1 hPa | - | - | - | - |
| 1777305592 | 21.67° C | 25% | 980.2 hPa | - | - | - | - |
| 1777304692 | 22.22° C | 25% | 980.2 hPa | - | - | - | - |
| 1777303792 | 21.67° C | 24% | 980.4 hPa | - | - | - | - |
| 1777302892 | 22.22° C | 24% | 980.2 hPa | - | - | - | - |
| 1777301992 | 22.22° C | 24% | 980.3 hPa | - | - | - | - |
| 1777301092 | 22.22° C | 23% | 980.3 hPa | - | - | - | - |
| 1777300192 | 22.78° C | 24% | 980.4 hPa | - | - | - | - |
| 1777299292 | 22.78° C | 23% | 980.4 hPa | - | - | - | - |
| 1777298392 | 22.78° C | 23% | 980.5 hPa | - | - | - | - |
* Rain since midnight (hover to see other rain measurements)
** Current wind speed in m/s (hover to see current wind gust speed)